Back to catalog

THOR BURNER 2 R/B

AliveSSO
NORAD 3522·ROCKET BODY·🇺🇸 United States

Launched Oct 23, 1968 from Vandenberg Space Force Base

Loading…

Next Passes (next 24 hours)

TLE

FreshSource: Space-Track

Epoch: Sep 14, 2026, 21:16 UTC

1 03522U 68092B   26257.88664555  .00000106  00000-0  57731-4 0  9990
2 03522  98.8304  51.0383 0027759 264.9863  94.8151 14.31065206 13116

Track THOR BURNER 2 R/B in real time with AllMySat

Download on the App Store